AirNav   ATP
 
 1523 users online  

KGEU Glendale Municipal Airport
Glendale, Arizona, USA

GOING TO GLENDALE?


FAA INFORMATION EFFECTIVE 01 FEBRUARY 2018

Location

FAA Identifier: GEU
Lat/Long: 33-31-36.9000N / 112-17-42.5000W
33-31.615000N / 112-17.708333W
33.5269167 / -112.2951389
(estimated)
Elevation: 1071.3 ft. / 326.5 m (surveyed)
Variation: 12E (1995)
From city: 6 miles W of GLENDALE, AZ
Time zone: UTC -7 (year round; does not observe DST)
Zip code: 85307

Airport Operations

Airport use: Open to the public
Activation date: 06/1986
Control tower: yes
ARTCC: ALBUQUERQUE CENTER
FSS: PRESCOTT FLIGHT SERVICE STATION
NOTAMs facility: GEU (NOTAM-D service available)
Attendance: 0630-1930
Pattern altitude: 2101.3 ft. MSL
TPA HIGH PERFORMANCE 1530 FT AGL, HELICOPTER/ULTRALIGHTS 630 FT AGL.
Wind indicator: lighted
Segmented circle: yes
Lights: WHEN ATCT CLSD ACTVT REIL RY 01/19; PAPI RY 01/19; MIRL RY 01/19 - TOWER FREQ. 121.0.
Beacon: white-green (lighted land airport)
Operates sunset to sunrise.

Airport Communications

CTAF: 121.0
UNICOM: 122.95
ATIS: 119.425
WX AWOS-3: 119.425 (623-877-8609)
GLENDALE GROUND: 118.0 [0600-2030 MON-FRI; 0700-1900 SAT & SUN]
GLENDALE TOWER: 121.0 [0600-2030 MON-FRI; 0700-1900 SAT & SUN]
LUKE APPROACH: 118.15 NORTH
PHOENIX APPROACH: 120.7
LUKE DEPARTURE: 118.15 NORTH
PHOENIX DEPARTURE: 120.7
DSERT STAR: 120.7
JCOBS STAR: 120.7
WX ASOS at DVT (14 nm NE): PHONE 623-587-7764
WX ASOS at PHX (15 nm E): PHONE 602-231-8557
  • EMERGENCY FREQUENCY 121.5 NOT MONITORED BY ATCT.
  • PHOENIX RCO 122.6 122.2 (PRESCOTT RADIO)

Nearby radio navigation aids

VOR radial/distance  VOR name  Freq  Var
PXRr277/17.2PHOENIX VORTAC115.6012E
BXKr067/26.9BUCKEYE VORTAC110.6014E
IWAr280/34.9WILLIE VORTAC113.3013E
GBNr015/39.2GILA BEND VORTAC116.6014E

 
NDB name  Hdg/Dist  Freq  Var  ID
CHANDLER291/29.040712ECHD -.-. .... -..

Airport Services

Fuel available: 100LL JET-A
FUEL AVBL 0630-1930; FEE OTHER HRS 623-877-8333.
Parking: tiedowns
Airframe service: MAJOR
Powerplant service: MAJOR
Bottled oxygen: LOW

Runway Information

Runway 1/19

Dimensions: 7150 x 100 ft. / 2179 x 30 m
Surface: asphalt, in good condition
Weight bearing capacity: 
Single wheel: 40.0
Double wheel: 60.0
Runway edge lights: medium intensity
RUNWAY 1  RUNWAY 19
Latitude: 33-31.083590N33-32.145793N
Longitude: 112-18.012923W112-17.402403W
Elevation: 1041.4 ft.1071.3 ft.
Gradient: 0.4% UP
Traffic pattern: rightleft
Runway heading: 013 magnetic, 025 true193 magnetic, 205 true
Displaced threshold: 701 ft.1001 ft.
Markings: nonprecision, in good conditionnonprecision, in good condition
Visual slope indicator: 2-light PAPI on left (3.00 degrees glide path)2-light PAPI on left (3.00 degrees glide path)
Runway end identifier lights: yesyes
Touchdown point: yes, no lightsyes, no lights
Obstructions: 13 ft. road, 201 ft. from runway, 150 ft. right of centerline
+13 FT ROAD 0-200 FT FROM END OF RY 150 FT RIGHT.
6 ft. fence, 201 ft. from runway, 150 ft. right of centerline
+10 FT BLAST FENCE 65 FT FROM END OF RY 0 B.

Airport Ownership and Management from official FAA records

Ownership: Publicly-owned
Owner: CITY OF GLENDALE
5850 W GLENDALE AVE.
GLENDALE, AZ 85301
Phone 623-930-2000
Manager: KENNETH POTTS
6801 N. GLEN HARBOR BLVD 201
GLENDALE, AZ 85307
Phone 623-930-4744
AIRPORT ADMINISTRATOR.

Airport Operational Statistics

Aircraft based on the field: 286
Single engine airplanes: 224
Multi engine airplanes: 29
Jet airplanes: 3
Helicopters: 6
Ultralights: 24
    
Aircraft operations: avg 178/day *
64% transient general aviation
34% local general aviation
1% air taxi
<1% military
* for 12-month period ending 31 December 2014

Additional Remarks

BE ALERT TO HVY MILITARY JET TFC 5 MILE WEST.
HIGH TENSION POWER LINES 1/4 MILE WEST PARALLEL TO RY UNMARKED AND UNLIGHTED.
COYOTES & BIRDS ON ARPT & INVOF AIRPORT.
TGL DISCOURAGED BTN 2200-0600.
AVOID NOISE SENSITIVE AREAS N & SE OF ARPT. RY 01 PREFERRED FOR NOISE ABATEMENT.
CTC ARPT MGMT FOR ADDITIONAL NOISE ABATEMENT PROCEDURES.
WEST SIDE HELICOPTER PATTERN NOT AVBL SS-SR.

Instrument Procedures

NOTE: All procedures below are presented as PDF files. If you need a reader for these files, you should download the free Adobe Reader.

NOT FOR NAVIGATION. Please procure official charts for flight.
FAA instrument procedures published for use between 1 February 2018 at 0901Z and 1 March 2018 at 0900Z.

 
STARs - Standard Terminal Arrivals
DSERT TWO (RNAV)   2 pages: [1] [2] (254KB)
JCOBS TWO   2 pages: [1] [2] (379KB)
SUNSS EIGHT   download (270KB)
 
IAPs - Instrument Approach Procedures
RNAV (GPS) RWY 01   download (232KB)
RNAV (GPS) RWY 19   download (231KB)
NOTE: Special Alternate Minimums apply   download (21KB)
 
Departure Procedures
BNYRD FIVE (RNAV)   download (187KB)
FTHLS FIVE (RNAV)   download (267KB)
GLENDALE ONE   download (248KB)
IZZZO SIX (RNAV)   download (247KB)
JUDTH SIX (RNAV)   download (194KB)
KATMN FIVE (RNAV)   download (198KB)
LALUZ FIVE (RNAV)   download (262KB)
MAYSA FIVE (RNAV)   download (202KB)
SNOBL FIVE (RNAV)   download (249KB)
YOTES FIVE (RNAV)   download (213KB)
 
DRAKE TWO (OBSTACLE) (RNAV)   download (186KB)
NOTE: Special Take-Off Minimums/Departure Procedures apply   download

Other nearby airports with instrument procedures:

KLUF - Luke Air Force Base (4 nm W)
KGYR - Phoenix Goodyear Airport (7 nm SW)
KDVT - Phoenix Deer Valley Airport (14 nm NE)
KPHX - Phoenix Sky Harbor International Airport (15 nm E)
KSDL - Scottsdale Airport (20 nm E)
 
Loc | Ops | Rwys | IFR | FBO | Links
Com | Nav | Svcs | Stats | Notes

Swift Aviation
AirBoss

 
Area around KGEU (Glendale Municipal Airport)
 
Road maps at: MapQuest Bing Google
 
Aerial photo
WARNING: Photo may not be current or correct
Aerial photo of KGEU (Glendale Municipal Airport)
Photo by Vicki Eifert
Photo taken 01-Jun-2017
looking south.

Do you have a better or more recent aerial photo of Glendale Municipal Airport that you would like to share? If so, please send us your photo.

 
Sectional chart

 
Airport diagram
Diagram of KGEU (Glendale Municipal Airport)
Download PDF
of official airport diagram from the FAA

 
Airport distance calculator
Flying to Glendale Municipal Airport? Find the distance to fly.

From to KGEU

Sunrise and sunset
Times for 19-Feb-2018
 Local
(UTC-7)
 Zulu
(UTC)
Morning civil twilight06:4513:45
Sunrise07:1014:10
Sunset18:1601:16
Evening civil twilight18:4101:41

Current date and time
Zulu (UTC)  19-Feb-2018 20:22:55
Local (UTC-7)  19-Feb-2018 13:22:55
 
METAR
KGEU 191947Z 21019G24KT 10SM SCT045 BKN055 18/03 A2971
KLUF 
4nm W 
191958Z AUTO 22025G31KT 6SM HZ CLR 18/03 A2968 RMK AO2 PK WND 23032/34 SLP045 T01820025 $
KGYR 
8nm SW 
191947Z 22020G25KT 10SM SCT050 BKN070 18/04 A2970
KPHX 
13nm SE 
191951Z 24021G27KT 10SM BKN060 BKN080 18/04 A2968 RMK AO2 PK WND 21027/1902 SLP039 T01830039 $
KDVT 
15nm NE 
191953Z 25022G27KT 10SM SCT045 BKN055 BKN085 17/04 A2968 RMK AO2 PK WND 23028/1930 SLP036 T01670044
KSDL 
20nm E 
191953Z 25012G23KT 10SM FEW060 18/06 A2969 RMK AO2 PK WND 24028/1934 SLP041 T01780056
TAF
KLUF 
4nm W 
191628Z 1916/2018 21012G18KT 9999 BKN040 QNH2972INS TEMPO 1918/1921 21015G25KT 510009 BECMG 1920/1921 23020G30KT 9999 BKN040 520009 QNH2973INS TEMPO 1921/1924 23025G35KT BECMG 2001/2002 26009KT 9999 SCT050 QNH2975INS BECMG 2017/2018 24009KT 9999 SCT080 QNH2983INS TX15/1921Z TN10/2011Z
KPHX 
13nm SE 
191720Z 1918/2024 25020G30KT P6SM BKN040 BKN060 FM200500 26012KT P6SM SCT060 FM200900 23004KT P6SM FEW070
KSDL 
20nm E 
191720Z 1918/2018 24015G25KT P6SM SCT030 BKN060 FM200200 26012KT P6SM SCT050 FM200400 26004KT P6SM FEW060
NOTAMs
Click for the latest NOTAMs
NOTAMs are issued by the DoD/FAA and will open in a separate window not controlled by AirNav.

 

 
 

FBO, Fuel Providers, and Aircraft Ground Support

  
 Business Name 
 
 Contact 
 
 Services / Description 
 
Fuel Prices
 
Comments
  
 Glendale Aero Services
623-877-3333
[web site]
[email]
Aviation fuel, Aircraft ground handling, Oxygen service, Aircraft parking (ramp or tiedown), Hangars, GPU / Power cart, Passenger terminal and lounge, ...
 
Crew car   Enterprise Rent-A-Car   Hertz   Cessna Service Center   Cirrus  
 
More info about Glendale Aero Services
EPIC
100LL Jet A
FS $5.35 $5.15 
GUARANTEED
 
   7 read write
FS=Full service
Update Fuel Prices
 

Would you like to see your business listed on this page?

 If your business provides an interesting product or service to pilots, flight crews, aircraft, or users of the Glendale Municipal Airport, you should consider listing it here.  To start the listing process, click on the button below
 
Add a business
 

Other Pages about Glendale Municipal Airport

www.glendaleaz.com/airport
 
Update a link
 
Copyright © AirNav, LLC. All rights reserved. Privacy Policy  Contact